Weather History for Shymkent, Kazakhstan

Change the Weather History Date:

Thursday, February 7, 2013

  Actual Average Record
Temperature  
Mean Temperature 39 °F -  
Max Temperature 51 °F - - ()
Min Temperature 27 °F - - ()
Degree Days  
Heating Degree Days 26    
Moisture  
Dew Point 27 °F    
Average Humidity 70    
Maximum Humidity 100    
Minimum Humidity 19    
Precipitation  
Precipitation 0.00 in - - ()
Sea Level Pressure  
Sea Level Pressure 30.35 in    
Wind  
Wind Speed 3 mph ()    
Max Wind Speed 7 mph    
Max Gust Speed -    
Visibility 2.1 miles    
Events Fog    
T = Trace of Precipitation, MM = Missing Value Source: Averaged Metar Reports

Daily Weather History Graph

Daily Weather History Graph

Search for Another Location

Airport:

Trip Planner

Search our weather history database for the weather conditions in past years. The results will help you decide how hot, cold, wet, or windy it might be!

Date:

Astronomy

Feb. 07, 2013 Rise Set
Actual Time 8:29 AM ALMT 6:43 PM ALMT
Civil Twilight 7:59 AM ALMT 7:13 PM ALMT
Nautical Twilight 7:26 AM ALMT 7:46 PM ALMT
Astronomical Twilight 6:53 AM ALMT 8:19 PM ALMT
Moon 5:47 AM ALMT (2/7) 3:36 PM ALMT (2/7)
Length of Visible Light 11h 13m
Length of Day
10h 14m
Waning Crescent, 12% of the Moon is Illuminated
Feb 7
Waning Crescent
Feb 10
New
Feb 18
First Quarter
Feb 26
Full
Mar 5
Last Quarter

Hourly Weather History & Observations

Time (ALMT) Temp. Windchill Dew Point Humidity Pressure Visibility Wind Dir Wind Speed Gust Speed Precip Events Conditions
12:00 AM 33 °F - 31 °F 87% 30.45 in - South 2.2 mph - -   Mist
12:00 AM 32.0 °F - 32.0 °F 100% 30.39 in 0.9 mi Calm Calm - N/A   Mist
12:30 AM 32.0 °F - 32.0 °F 100% 30.39 in 0.8 mi Calm Calm - N/A   Mist
1:00 AM 30.2 °F - 30.2 °F 100% 30.39 in 0.8 mi SSE 2.2 mph - N/A   Mist
1:30 AM 32.0 °F - 32.0 °F 100% 30.39 in 0.8 mi Variable 2.2 mph - N/A   Mist
2:00 AM 32.0 °F - 32.0 °F 100% 30.39 in 0.8 mi East 2.2 mph - N/A   Mist
2:30 AM 28.4 °F 23.4 °F 28.4 °F 100% 30.39 in 0.8 mi SE 4.5 mph - N/A   Mist
3:00 AM 30 °F - 29 °F 95% 30.47 in - Calm Calm - -   Mist
3:00 AM 28.4 °F 23.4 °F 28.4 °F 100% 30.39 in 0.6 mi ESE 4.5 mph - N/A   Mist
3:30 AM 28.4 °F 23.4 °F 28.4 °F 100% 30.39 in 0.6 mi SE 4.5 mph - N/A   Mist
4:00 AM 28.4 °F 23.4 °F 28.4 °F 100% 30.39 in 0.6 mi SE 4.5 mph - N/A Fog Light Freezing Fog
4:30 AM 30.2 °F 25.5 °F 30.2 °F 100% 30.39 in 0.6 mi SE 4.5 mph - N/A Fog Light Freezing Fog
5:00 AM 28.4 °F - 28.4 °F 100% 30.39 in 0.6 mi SSE 2.2 mph - N/A   Mist
5:30 AM 28.4 °F - 28.4 °F 100% 30.39 in 0.6 mi ESE 2.2 mph - N/A   Mist
6:00 AM 31 °F - 25 °F 72% 30.47 in - ESE 4.5 mph - -   Mist
6:00 AM 28.4 °F 21.4 °F 28.4 °F 100% 30.39 in 0.9 mi SE 6.7 mph - N/A   Mist
6:30 AM 28.4 °F 23.4 °F 26.6 °F 93% 30.39 in 1.2 mi ESE 4.5 mph - N/A   Mist
7:00 AM 28.4 °F 23.4 °F 26.6 °F 93% 30.39 in 1.2 mi ESE 4.5 mph - N/A   Mist
7:30 AM 26.6 °F 21.3 °F 24.8 °F 93% 30.39 in 1.2 mi SE 4.5 mph - N/A   Mist
8:30 AM 26.6 °F 19.2 °F 23.0 °F 86% 30.39 in 3.1 mi ESE 6.7 mph - N/A   Mist
9:00 AM 30 °F - 24 °F 68% 30.47 in 31 mi SE 2.2 mph - -  
9:00 AM 28.4 °F 21.4 °F 24.8 °F 86% 30.39 in 3.1 mi ESE 6.7 mph - N/A   Mist
9:30 AM 32.0 °F 25.7 °F 28.4 °F 87% 30.39 in 3.1 mi ESE 6.7 mph - N/A   Mist
10:00 AM 35.6 °F 31.8 °F 30.2 °F 81% 30.39 in 2.5 mi ESE 4.5 mph - N/A   Mist
10:30 AM 37.4 °F - 30.2 °F 75% 30.39 in 2.5 mi Variable 2.2 mph - N/A   Mist
11:00 AM 41.0 °F - 30.2 °F 65% 30.39 in 2.5 mi Variable 2.2 mph - N/A   Smoke
11:30 AM 44.6 °F - 30.2 °F 57% 30.39 in 4.3 mi Variable 2.2 mph - N/A   Unknown
12:00 PM 46 °F - 24 °F 28% 30.40 in 31 mi ENE 2.2 mph - -   Clear
12:00 PM 44.6 °F - 30.2 °F 57% 30.39 in 4.3 mi Variable 2.2 mph - N/A   Unknown
12:30 PM 46.4 °F - 30.2 °F 53% 30.39 in - Variable 2.2 mph - N/A   Clear
1:00 PM 46.4 °F 44.4 °F 26.6 °F 46% 30.36 in - NNW 4.5 mph - N/A   Clear
1:30 PM 48.2 °F - 26.6 °F 43% 30.33 in - Variable 2.2 mph - N/A   Clear
2:00 PM 50.0 °F - 23.0 °F 35% 30.33 in - North 4.5 mph - N/A   Clear
2:30 PM 51.8 °F - 21.2 °F 30% 30.33 in - NW 4.5 mph - N/A   Clear
3:00 PM 50 °F - 20 °F 19% 30.32 in 31 mi WNW 2.2 mph - -   Clear
3:00 PM 51.8 °F - 21.2 °F 30% 30.30 in - Variable 2.2 mph - N/A   Clear
3:30 PM 51.8 °F - 23.0 °F 33% 30.30 in - North 6.7 mph - N/A   Clear
4:00 PM 51.8 °F - 21.2 °F 30% 30.30 in - North 6.7 mph - N/A   Clear
4:30 PM 51.8 °F - 21.2 °F 30% 30.33 in - NNW 6.7 mph - N/A   Clear
5:00 PM 51.8 °F - 21.2 °F 30% 30.33 in - North 6.7 mph - N/A   Clear
5:30 PM 50.0 °F - 21.2 °F 32% 30.30 in - North 6.7 mph - N/A   Clear
6:00 PM 48 °F - 21 °F 22% 30.31 in 31 mi NNE 4.5 mph - -   Overcast
6:00 PM 50.0 °F - 30.2 °F 47% 30.27 in - North 4.5 mph - N/A   Clear
6:30 PM 46.4 °F 44.4 °F 30.2 °F 53% 30.27 in - NNE 4.5 mph - N/A   Clear
7:00 PM 42.8 °F 40.2 °F 32.0 °F 66% 30.27 in - North 4.5 mph - N/A   Clear
7:30 PM 42.8 °F - 30.2 °F 61% 30.24 in - Variable 2.2 mph - N/A   Clear
8:00 PM 39.2 °F - 28.4 °F 65% 30.24 in 5.0 mi East 2.2 mph - N/A   Unknown
8:30 PM 39.2 °F - 28.4 °F 65% 30.24 in 5.0 mi Calm Calm - N/A   Unknown
9:00 PM 38 °F - 29 °F 62% 30.29 in - East 2.2 mph - -   Clear
9:00 PM 35.6 °F - 28.4 °F 75% 30.24 in 5.0 mi ESE 2.2 mph - N/A   Unknown
9:30 PM 35.6 °F - 28.4 °F 75% 30.24 in 3.1 mi East 2.2 mph - N/A   Mist
10:00 PM 35.6 °F - 28.4 °F 75% 30.24 in 3.1 mi Calm Calm - N/A   Mist
10:30 PM 32.0 °F - 26.6 °F 80% 30.21 in 3.1 mi Calm Calm - N/A   Mist
11:00 PM 30.2 °F 25.5 °F 26.6 °F 86% 30.21 in 1.9 mi SE 4.5 mph - N/A   Mist
11:30 PM 32.0 °F 27.6 °F 26.6 °F 80% 30.21 in 1.9 mi SE 4.5 mph - N/A   Mist